date,time,SUV Intensity [MED/Hr],UV Index,Daily total [MED],Since Last [MED]
27/09/2022,00:01:06,-0.001,0.0,0.0,0.0
27/09/2022,00:02:15,0.000,0.0,0.0,0.0
27/09/2022,00:03:06,0.000,0.0,0.0,0.0
27/09/2022,00:04:06,-0.000,0.0,0.0,0.0
27/09/2022,00:05:06,0.000,0.0,0.0,0.0
27/09/2022,00:06:07,-0.001,0.0,0.0,0.0
27/09/2022,00:07:06,0.000,0.0,0.0,0.0
27/09/2022,00:08:07,0.000,0.0,0.0,0.0
27/09/2022,00:09:07,0.000,0.0,0.0,0.0
27/09/2022,00:10:06,0.000,0.0,0.0,0.0
27/09/2022,00:11:19,0.000,0.0,0.0,0.0
27/09/2022,00:13:07,0.000,0.0,0.0,0.0
27/09/2022,00:14:07,0.000,0.0,0.0,0.0
27/09/2022,00:15:15,0.001,0.0,0.0,0.0
27/09/2022,00:16:06,0.000,0.0,0.0,0.0
27/09/2022,00:17:06,-0.000,0.0,0.0,0.0
27/09/2022,00:18:06,0.000,0.0,0.0,0.0
27/09/2022,00:19:06,0.000,0.0,0.0,0.0
27/09/2022,00:20:08,-0.001,0.0,0.0,0.0
27/09/2022,00:21:16,0.001,0.0,0.0,0.0
27/09/2022,00:22:05,0.000,0.0,0.0,0.0
27/09/2022,00:23:07,0.001,0.0,0.0,0.0
27/09/2022,00:24:06,0.000,0.0,0.0,0.0
27/09/2022,00:25:07,-0.001,0.0,0.0,0.0
27/09/2022,00:26:06,0.000,0.0,0.0,0.0
27/09/2022,00:27:07,-0.001,0.0,0.0,0.0
27/09/2022,00:28:06,0.000,0.0,0.0,0.0
27/09/2022,00:29:06,0.000,0.0,0.0,0.0
27/09/2022,00:30:07,0.000,0.0,0.0,0.0
27/09/2022,00:31:07,0.001,0.0,0.0,0.0
27/09/2022,00:32:06,0.000,0.0,0.0,0.0
27/09/2022,00:33:06,0.000,0.0,0.0,0.0
27/09/2022,00:34:07,-0.001,0.0,0.0,0.0
27/09/2022,00:35:06,-0.000,0.0,0.0,0.0
27/09/2022,00:36:07,0.000,0.0,0.0,0.0
27/09/2022,00:37:15,0.001,0.0,0.0,0.0
27/09/2022,00:38:05,0.001,0.0,0.0,0.0
27/09/2022,00:39:06,0.000,0.0,0.0,0.0
27/09/2022,00:40:07,0.001,0.0,0.0,0.0
27/09/2022,00:41:06,0.001,0.0,0.0,0.0
27/09/2022,00:42:06,0.000,0.0,0.0,0.0
27/09/2022,00:43:07,0.001,0.0,0.0,0.0
27/09/2022,00:44:07,-0.000,0.0,0.0,0.0
27/09/2022,00:45:06,-0.001,0.0,0.0,0.0
27/09/2022,00:46:06,0.000,0.0,0.0,0.0
27/09/2022,00:47:14,0.000,0.0,0.0,0.0
27/09/2022,00:48:06,0.000,0.0,0.0,0.0
27/09/2022,00:49:07,0.000,0.0,0.0,0.0
27/09/2022,00:50:07,-0.000,0.0,0.0,0.0
27/09/2022,00:51:06,-0.001,0.0,0.0,0.0
27/09/2022,00:52:07,-0.001,0.0,0.0,0.0
27/09/2022,00:53:06,0.000,0.0,0.0,0.0
27/09/2022,00:54:07,0.000,0.0,0.0,0.0
27/09/2022,00:55:06,0.001,0.0,0.0,0.0
27/09/2022,00:56:07,0.000,0.0,0.0,0.0
27/09/2022,00:57:15,0.001,0.0,0.0,0.0
27/09/2022,00:58:06,-0.001,0.0,0.0,0.0
27/09/2022,00:59:06,0.000,0.0,0.0,0.0
27/09/2022,01:00:15,0.000,0.0,0.0,0.0
27/09/2022,01:01:07,0.000,0.0,0.0,0.0
27/09/2022,01:02:07,0.000,0.0,0.0,0.0
27/09/2022,01:03:07,0.000,0.0,0.0,0.0
27/09/2022,01:04:06,0.000,0.0,0.0,0.0
27/09/2022,01:05:07,0.000,0.0,0.0,0.0
27/09/2022,01:06:06,0.001,0.0,0.0,0.0
27/09/2022,01:07:07,0.000,0.0,0.0,0.0
27/09/2022,01:08:07,0.001,0.0,0.0,0.0
27/09/2022,01:09:07,0.000,0.0,0.0,0.0
27/09/2022,01:10:15,0.000,0.0,0.0,0.0
27/09/2022,01:11:06,0.000,0.0,0.0,0.0
27/09/2022,01:12:15,0.000,0.0,0.0,0.0
27/09/2022,01:13:15,0.000,0.0,0.0,0.0
27/09/2022,01:14:06,0.000,0.0,0.0,0.0
27/09/2022,01:15:07,0.000,0.0,0.0,0.0
27/09/2022,01:16:07,-0.001,0.0,0.0,0.0
27/09/2022,01:17:07,0.000,0.0,0.0,0.0
27/09/2022,01:18:06,0.000,0.0,0.0,0.0
27/09/2022,01:19:06,0.000,0.0,0.0,0.0
27/09/2022,01:19:58,0.000,0.0,0.0,0.0
27/09/2022,01:21:07,-0.001,0.0,0.0,0.0
27/09/2022,01:22:08,0.000,0.0,0.0,0.0
27/09/2022,01:23:06,0.000,0.0,0.0,0.0
27/09/2022,01:24:07,0.000,0.0,0.0,0.0
27/09/2022,01:25:06,0.001,0.0,0.0,0.0
27/09/2022,01:26:07,0.000,0.0,0.0,0.0
27/09/2022,01:27:06,0.000,0.0,0.0,0.0
27/09/2022,01:28:06,-0.000,0.0,0.0,0.0
27/09/2022,01:29:07,0.000,0.0,0.0,0.0
27/09/2022,01:30:06,-0.001,0.0,0.0,0.0
27/09/2022,01:31:07,0.001,0.0,0.0,0.0
27/09/2022,01:32:07,0.000,0.0,0.0,0.0
27/09/2022,01:33:08,-0.001,0.0,0.0,0.0
27/09/2022,01:34:06,0.000,0.0,0.0,0.0
27/09/2022,01:35:07,-0.001,0.0,0.0,0.0
27/09/2022,01:36:15,0.000,0.0,0.0,0.0
27/09/2022,01:37:06,0.000,0.0,0.0,0.0
27/09/2022,01:38:06,0.000,0.0,0.0,0.0
27/09/2022,01:39:07,0.000,0.0,0.0,0.0
27/09/2022,01:40:07,0.000,0.0,0.0,0.0
27/09/2022,01:41:07,0.000,0.0,0.0,0.0
27/09/2022,01:42:06,0.000,0.0,0.0,0.0
27/09/2022,01:43:06,0.000,0.0,0.0,0.0
27/09/2022,01:44:07,0.000,0.0,0.0,0.0
27/09/2022,01:45:07,0.001,0.0,0.0,0.0
27/09/2022,01:46:15,-0.001,0.0,0.0,0.0
27/09/2022,01:47:06,0.000,0.0,0.0,0.0
27/09/2022,01:48:06,0.000,0.0,0.0,0.0
27/09/2022,01:49:06,0.000,0.0,0.0,0.0
27/09/2022,01:50:07,-0.000,0.0,0.0,0.0
27/09/2022,01:51:06,0.000,0.0,0.0,0.0
27/09/2022,01:52:23,0.000,0.0,0.0,0.0
27/09/2022,01:54:07,0.000,0.0,0.0,0.0
27/09/2022,01:55:07,0.000,0.0,0.0,0.0
27/09/2022,01:56:06,0.000,0.0,0.0,0.0
27/09/2022,01:57:07,-0.001,0.0,0.0,0.0
27/09/2022,01:58:07,0.001,0.0,0.0,0.0
27/09/2022,01:59:07,0.000,0.0,0.0,0.0
27/09/2022,02:00:15,0.000,0.0,0.0,0.0
27/09/2022,02:01:07,0.000,0.0,0.0,0.0
27/09/2022,02:02:07,0.000,0.0,0.0,0.0
27/09/2022,02:03:07,0.000,0.0,0.0,0.0
27/09/2022,02:04:15,-0.001,0.0,0.0,0.0
27/09/2022,02:05:06,0.000,0.0,0.0,0.0
27/09/2022,02:06:07,0.001,0.0,0.0,0.0
27/09/2022,02:07:06,0.001,0.0,0.0,0.0
27/09/2022,02:08:06,0.000,0.0,0.0,0.0
27/09/2022,02:09:07,0.001,0.0,0.0,0.0
27/09/2022,02:10:07,-0.001,0.0,0.0,0.0
27/09/2022,02:11:15,0.000,0.0,0.0,0.0
27/09/2022,02:12:07,0.000,0.0,0.0,0.0
27/09/2022,02:13:06,0.000,0.0,0.0,0.0
27/09/2022,02:14:06,0.001,0.0,0.0,0.0
27/09/2022,02:15:06,0.000,0.0,0.0,0.0
27/09/2022,02:16:07,0.000,0.0,0.0,0.0
27/09/2022,02:17:07,0.001,0.0,0.0,0.0
27/09/2022,02:18:07,0.000,0.0,0.0,0.0
27/09/2022,02:19:06,-0.001,0.0,0.0,0.0
27/09/2022,02:20:06,0.000,0.0,0.0,0.0
27/09/2022,02:21:15,-0.000,0.0,0.0,0.0
27/09/2022,02:22:07,0.001,0.0,0.0,0.0
27/09/2022,02:23:23,0.001,0.0,0.0,0.0
27/09/2022,02:25:16,-0.001,0.0,0.0,0.0
27/09/2022,02:26:05,-0.000,0.0,0.0,0.0
27/09/2022,02:27:06,0.000,0.0,0.0,0.0
27/09/2022,02:28:07,0.000,0.0,0.0,0.0
27/09/2022,02:29:07,0.000,0.0,0.0,0.0
27/09/2022,02:30:07,0.001,0.0,0.0,0.0
27/09/2022,02:31:15,-0.001,0.0,0.0,0.0
27/09/2022,02:32:07,0.001,0.0,0.0,0.0
27/09/2022,02:33:07,0.000,0.0,0.0,0.0
27/09/2022,02:34:14,0.000,0.0,0.0,0.0
27/09/2022,02:35:07,-0.001,0.0,0.0,0.0
27/09/2022,02:36:07,0.000,0.0,0.0,0.0
27/09/2022,02:37:15,0.000,0.0,0.0,0.0
27/09/2022,02:38:07,0.000,0.0,0.0,0.0
27/09/2022,02:39:07,0.000,0.0,0.0,0.0
27/09/2022,02:40:07,-0.000,0.0,0.0,0.0
27/09/2022,02:41:06,-0.000,0.0,0.0,0.0
27/09/2022,02:42:07,0.001,0.0,0.0,0.0
27/09/2022,02:43:06,-0.000,0.0,0.0,0.0
27/09/2022,02:44:15,0.000,0.0,0.0,0.0
27/09/2022,02:45:06,0.000,0.0,0.0,0.0
27/09/2022,02:46:06,0.000,0.0,0.0,0.0
27/09/2022,02:47:15,-0.001,0.0,0.0,0.0
27/09/2022,02:48:07,0.000,0.0,0.0,0.0
27/09/2022,02:49:06,-0.000,0.0,0.0,0.0
27/09/2022,02:50:07,0.000,0.0,0.0,0.0
27/09/2022,02:51:07,-0.000,0.0,0.0,0.0
27/09/2022,02:52:06,0.000,0.0,0.0,0.0
27/09/2022,02:53:07,0.000,0.0,0.0,0.0
27/09/2022,02:54:06,0.000,0.0,0.0,0.0
27/09/2022,02:55:07,0.000,0.0,0.0,0.0
27/09/2022,02:56:06,0.000,0.0,0.0,0.0
27/09/2022,02:57:15,0.000,0.0,0.0,0.0
27/09/2022,02:58:06,0.001,0.0,0.0,0.0
27/09/2022,02:59:07,0.000,0.0,0.0,0.0
27/09/2022,03:00:06,-0.001,0.0,0.0,0.0
27/09/2022,03:01:06,0.000,0.0,0.0,0.0
27/09/2022,03:02:24,0.001,0.0,0.0,0.0
27/09/2022,03:04:07,0.000,0.0,0.0,0.0
27/09/2022,03:05:07,0.001,0.0,0.0,0.0
27/09/2022,03:06:07,-0.000,0.0,0.0,0.0
27/09/2022,03:07:15,0.000,0.0,0.0,0.0
27/09/2022,03:08:07,-0.001,0.0,0.0,0.0
27/09/2022,03:09:06,0.000,0.0,0.0,0.0
27/09/2022,03:10:15,0.001,0.0,0.0,0.0
27/09/2022,03:11:05,-0.000,0.0,0.0,0.0
27/09/2022,03:12:07,0.000,0.0,0.0,0.0
27/09/2022,03:13:15,-0.001,0.0,0.0,0.0
27/09/2022,03:14:07,-0.000,0.0,0.0,0.0
27/09/2022,03:15:07,0.000,0.0,0.0,0.0
27/09/2022,03:16:07,0.001,0.0,0.0,0.0
27/09/2022,03:17:07,-0.001,0.0,0.0,0.0
27/09/2022,03:18:06,0.000,0.0,0.0,0.0
27/09/2022,03:19:06,0.000,0.0,0.0,0.0
27/09/2022,03:20:07,0.001,0.0,0.0,0.0
27/09/2022,03:21:06,0.000,0.0,0.0,0.0
27/09/2022,03:22:07,-0.000,0.0,0.0,0.0
27/09/2022,03:23:15,0.000,0.0,0.0,0.0
27/09/2022,03:24:06,-0.001,0.0,0.0,0.0
27/09/2022,03:25:07,0.000,0.0,0.0,0.0
27/09/2022,03:26:06,0.000,0.0,0.0,0.0
27/09/2022,03:27:06,0.000,0.0,0.0,0.0
27/09/2022,03:28:07,0.001,0.0,0.0,0.0
27/09/2022,03:29:06,0.001,0.0,0.0,0.0
27/09/2022,03:30:06,-0.001,0.0,0.0,0.0
27/09/2022,03:31:07,0.000,0.0,0.0,0.0
27/09/2022,03:32:07,0.000,0.0,0.0,0.0
27/09/2022,03:33:15,0.000,0.0,0.0,0.0
27/09/2022,03:34:06,0.001,0.0,0.0,0.0
27/09/2022,03:35:07,-0.001,0.0,0.0,0.0
27/09/2022,03:36:07,0.000,0.0,0.0,0.0
27/09/2022,03:37:07,0.000,0.0,0.0,0.0
27/09/2022,03:38:07,0.001,0.0,0.0,0.0
27/09/2022,03:39:06,0.000,0.0,0.0,0.0
27/09/2022,03:40:07,0.000,0.0,0.0,0.0
27/09/2022,03:41:07,0.000,0.0,0.0,0.0
27/09/2022,03:42:07,0.000,0.0,0.0,0.0
27/09/2022,03:43:07,0.000,0.0,0.0,0.0
27/09/2022,03:44:07,0.000,0.0,0.0,0.0
27/09/2022,03:45:07,0.000,0.0,0.0,0.0
27/09/2022,03:46:07,-0.001,0.0,0.0,0.0
27/09/2022,03:47:07,0.000,0.0,0.0,0.0
27/09/2022,03:48:07,0.000,0.0,0.0,0.0
27/09/2022,03:49:07,-0.001,0.0,0.0,0.0
27/09/2022,03:50:07,-0.001,0.0,0.0,0.0
27/09/2022,03:51:07,-0.000,0.0,0.0,0.0
27/09/2022,03:52:23,0.000,0.0,0.0,0.0
27/09/2022,03:54:16,0.000,0.0,0.0,0.0
27/09/2022,03:55:05,0.001,0.0,0.0,0.0
27/09/2022,03:56:07,0.000,0.0,0.0,0.0
27/09/2022,03:57:06,0.000,0.0,0.0,0.0
27/09/2022,03:58:07,0.000,0.0,0.0,0.0
27/09/2022,03:59:06,0.000,0.0,0.0,0.0
27/09/2022,04:00:07,0.000,0.0,0.0,0.0
27/09/2022,04:01:07,0.001,0.0,0.0,0.0
27/09/2022,04:02:07,0.000,0.0,0.0,0.0
27/09/2022,04:03:07,0.000,0.0,0.0,0.0
27/09/2022,04:04:07,-0.000,0.0,0.0,0.0
27/09/2022,04:05:08,0.000,0.0,0.0,0.0
27/09/2022,04:06:07,0.001,0.0,0.0,0.0
27/09/2022,04:07:06,-0.000,0.0,0.0,0.0
27/09/2022,04:08:07,-0.001,0.0,0.0,0.0
27/09/2022,04:09:06,0.000,0.0,0.0,0.0
27/09/2022,04:10:07,-0.000,0.0,0.0,0.0
27/09/2022,04:11:06,0.000,0.0,0.0,0.0
27/09/2022,04:12:07,-0.001,0.0,0.0,0.0
27/09/2022,04:13:07,0.001,0.0,0.0,0.0
27/09/2022,04:14:07,0.001,0.0,0.0,0.0
27/09/2022,04:15:07,0.000,0.0,0.0,0.0
27/09/2022,04:16:07,0.001,0.0,0.0,0.0
27/09/2022,04:17:07,0.000,0.0,0.0,0.0
27/09/2022,04:18:07,0.000,0.0,0.0,0.0
27/09/2022,04:19:07,0.001,0.0,0.0,0.0
27/09/2022,04:20:07,0.000,0.0,0.0,0.0
27/09/2022,04:21:06,0.000,0.0,0.0,0.0
27/09/2022,04:22:07,0.000,0.0,0.0,0.0
27/09/2022,04:23:06,-0.001,0.0,0.0,0.0
27/09/2022,04:24:07,0.000,0.0,0.0,0.0
27/09/2022,04:25:23,-0.001,0.0,0.0,0.0
27/09/2022,04:27:08,-0.000,0.0,0.0,0.0
27/09/2022,04:28:07,0.001,0.0,0.0,0.0
27/09/2022,04:29:07,0.000,0.0,0.0,0.0
27/09/2022,04:30:07,0.001,0.0,0.0,0.0
27/09/2022,04:31:07,0.000,0.0,0.0,0.0
27/09/2022,04:32:07,0.000,0.0,0.0,0.0
27/09/2022,04:33:07,0.000,0.0,0.0,0.0
27/09/2022,04:34:07,0.000,0.0,0.0,0.0
27/09/2022,04:35:07,0.001,0.0,0.0,0.0
27/09/2022,04:36:15,0.000,0.0,0.0,0.0
27/09/2022,04:37:07,-0.001,0.0,0.0,0.0
27/09/2022,04:38:07,0.000,0.0,0.0,0.0
27/09/2022,04:39:07,0.000,0.0,0.0,0.0
27/09/2022,04:40:07,0.002,0.0,0.0,0.0
27/09/2022,04:41:07,0.001,0.0,0.0,0.0
27/09/2022,04:42:07,0.000,0.0,0.0,0.0
27/09/2022,04:43:07,-0.001,0.0,0.0,0.0
27/09/2022,04:44:07,0.001,0.0,0.0,0.0
27/09/2022,04:45:07,-0.000,0.0,0.0,0.0
27/09/2022,04:46:15,0.000,0.0,0.0,0.0
27/09/2022,04:47:07,0.000,0.0,0.0,0.0
27/09/2022,04:48:07,-0.000,0.0,0.0,0.0
27/09/2022,04:49:15,0.001,0.0,0.0,0.0
27/09/2022,04:50:07,0.000,0.0,0.0,0.0
27/09/2022,04:51:06,0.000,0.0,0.0,0.0
27/09/2022,04:52:15,-0.000,0.0,0.0,0.0
27/09/2022,04:53:07,0.000,0.0,0.0,0.0
27/09/2022,04:54:07,0.000,0.0,0.0,0.0
27/09/2022,04:55:07,-0.001,0.0,0.0,0.0
27/09/2022,04:56:07,0.000,0.0,0.0,0.0
27/09/2022,04:57:07,0.000,0.0,0.0,0.0
27/09/2022,04:58:07,0.001,0.0,0.0,0.0
27/09/2022,04:59:15,0.001,0.0,0.0,0.0
27/09/2022,05:00:07,0.000,0.0,0.0,0.0
27/09/2022,05:01:07,0.001,0.0,0.0,0.0
27/09/2022,05:02:16,0.000,0.0,0.0,0.0
27/09/2022,05:03:07,0.000,0.0,0.0,0.0
27/09/2022,05:04:07,0.001,0.0,0.0,0.0
27/09/2022,05:05:07,-0.001,0.0,0.0,0.0
27/09/2022,05:06:07,0.000,0.0,0.0,0.0
27/09/2022,05:07:07,0.001,0.0,0.0,0.0
27/09/2022,05:08:07,0.000,0.0,0.0,0.0
27/09/2022,05:09:07,0.001,0.0,0.0,0.0
27/09/2022,05:10:06,0.000,0.0,0.0,0.0
27/09/2022,05:11:07,0.000,0.0,0.0,0.0
27/09/2022,05:12:07,-0.001,0.0,0.0,0.0
27/09/2022,05:13:07,0.000,0.0,0.0,0.0
27/09/2022,05:14:07,-0.001,0.0,0.0,0.0
27/09/2022,05:15:07,0.000,0.0,0.0,0.0
27/09/2022,05:16:07,0.000,0.0,0.0,0.0
27/09/2022,05:17:07,0.001,0.0,0.0,0.0
27/09/2022,05:18:06,0.000,0.0,0.0,0.0
27/09/2022,05:19:06,0.001,0.0,0.0,0.0
27/09/2022,05:20:07,0.000,0.0,0.0,0.0
27/09/2022,05:21:07,0.000,0.0,0.0,0.0
27/09/2022,05:22:15,0.000,0.0,0.0,0.0
27/09/2022,05:23:07,-0.001,0.0,0.0,0.0
27/09/2022,05:24:07,0.000,0.0,0.0,0.0
27/09/2022,05:25:07,0.000,0.0,0.0,0.0
27/09/2022,05:26:07,0.000,0.0,0.0,0.0
27/09/2022,05:27:07,0.002,0.0,0.0,0.0
27/09/2022,05:28:07,-0.001,0.0,0.0,0.0
27/09/2022,05:29:07,0.000,0.0,0.0,0.0
27/09/2022,05:30:07,0.000,0.0,0.0,0.0
27/09/2022,05:31:07,0.000,0.0,0.0,0.0
27/09/2022,05:32:07,0.001,0.0,0.0,0.0
27/09/2022,05:33:06,0.000,0.0,0.0,0.0
27/09/2022,05:34:07,0.001,0.0,0.0,0.0
27/09/2022,05:35:07,0.000,0.0,0.0,0.0
27/09/2022,05:36:07,0.000,0.0,0.0,0.0
27/09/2022,05:37:08,0.001,0.0,0.0,0.0
27/09/2022,05:38:06,0.000,0.0,0.0,0.0
27/09/2022,05:39:07,0.000,0.0,0.0,0.0
27/09/2022,05:40:07,0.001,0.0,0.0,0.0
27/09/2022,05:41:07,0.000,0.0,0.0,0.0
27/09/2022,05:42:07,0.001,0.0,0.0,0.0
27/09/2022,05:43:07,0.001,0.0,0.0,0.0
27/09/2022,05:44:07,0.001,0.0,0.0,0.0
27/09/2022,05:45:07,0.001,0.0,0.0,0.0
27/09/2022,05:46:07,0.001,0.0,0.0,0.0
27/09/2022,05:47:07,0.000,0.0,0.0,0.0
27/09/2022,05:48:07,0.001,0.0,0.0,0.0
27/09/2022,05:49:07,0.001,0.0,0.0,0.0
27/09/2022,05:50:07,0.001,0.0,0.0,0.0
27/09/2022,05:51:07,0.001,0.0,0.0,0.0
27/09/2022,05:52:07,0.001,0.0,0.0,0.0
27/09/2022,05:53:07,0.001,0.0,0.0,0.0
27/09/2022,05:54:08,0.001,0.0,0.0,0.0
27/09/2022,05:55:15,0.001,0.0,0.0,0.0
27/09/2022,05:56:07,0.002,0.0,0.0,0.0
27/09/2022,05:57:07,0.002,0.0,0.0,0.0
27/09/2022,05:58:07,0.002,0.0,0.0,0.0
27/09/2022,05:59:07,0.002,0.0,0.0,0.0
27/09/2022,06:00:07,0.002,0.0,0.0,0.0
27/09/2022,06:01:07,0.002,0.0,0.0,0.0
27/09/2022,06:02:07,0.002,0.0,0.0,0.0
27/09/2022,06:03:07,0.003,0.0,0.0,0.0
27/09/2022,06:04:07,0.002,0.0,0.0,0.0
27/09/2022,06:05:15,0.003,0.0,0.0,0.0
27/09/2022,06:06:07,0.003,0.0,0.0,0.0
27/09/2022,06:07:07,0.004,0.0,0.0,0.0
27/09/2022,06:08:07,0.004,0.0,0.0,0.0
27/09/2022,06:09:07,0.004,0.0,0.0,0.0
27/09/2022,06:10:07,0.003,0.0,0.0,0.0
27/09/2022,06:11:07,0.005,0.0,0.0,0.0
27/09/2022,06:12:07,0.005,0.0,0.0,0.0
27/09/2022,06:13:07,0.005,0.0,0.0,0.0
27/09/2022,06:14:07,0.006,0.0,0.0,0.0
27/09/2022,06:15:07,0.006,0.0,0.0,0.0
27/09/2022,06:16:07,0.006,0.0,0.0,0.0
27/09/2022,06:17:07,0.007,0.0,0.0,0.0
27/09/2022,06:18:07,0.006,0.0,0.0,0.0
27/09/2022,06:19:15,0.006,0.0,0.0,0.0
27/09/2022,06:20:07,0.007,0.0,0.0,0.0
27/09/2022,06:21:07,0.008,0.0,0.001,0.001
27/09/2022,06:22:07,0.008,0.0,0.001,0.0
27/09/2022,06:23:07,0.009,0.0,0.001,0.0
27/09/2022,06:24:07,0.010,0.0,0.001,0.0
27/09/2022,06:25:16,0.011,0.0,0.001,0.0
27/09/2022,06:26:05,0.011,0.0,0.001,0.0
27/09/2022,06:27:07,0.013,0.0,0.002,0.001
27/09/2022,06:28:16,0.013,0.0,0.002,0.0
27/09/2022,06:29:07,0.013,0.0,0.002,0.0
27/09/2022,06:30:07,0.013,0.0,0.002,0.0
27/09/2022,06:31:09,0.014,0.0,0.002,0.0
27/09/2022,06:32:07,0.015,0.0,0.003,0.001
27/09/2022,06:33:07,0.016,0.0,0.003,0.0
27/09/2022,06:34:07,0.016,0.0,0.003,0.0
27/09/2022,06:35:07,0.018,0.0,0.003,0.0
27/09/2022,06:36:07,0.018,0.0,0.004,0.001
27/09/2022,06:37:08,0.019,0.0,0.004,0.0
27/09/2022,06:38:15,0.020,0.0,0.004,0.0
27/09/2022,06:39:07,0.021,0.0,0.005,0.001
27/09/2022,06:40:07,0.021,0.0,0.005,0.0
27/09/2022,06:41:07,0.021,0.0,0.005,0.0
27/09/2022,06:42:07,0.022,0.0,0.006,0.001
27/09/2022,06:43:07,0.022,0.0,0.006,0.0
27/09/2022,06:44:07,0.022,0.0,0.006,0.0
27/09/2022,06:45:07,0.022,0.0,0.007,0.001
27/09/2022,06:46:07,0.022,0.0,0.007,0.0
27/09/2022,06:47:07,0.023,0.0,0.008,0.001
27/09/2022,06:48:15,0.024,0.0,0.008,0.0
27/09/2022,06:49:15,0.024,0.0,0.008,0.0
27/09/2022,06:50:07,0.024,0.0,0.009,0.001
27/09/2022,06:51:16,0.025,0.0,0.009,0.0
27/09/2022,06:52:07,0.025,0.0,0.01,0.001
27/09/2022,06:53:07,0.025,0.0,0.01,0.0
27/09/2022,06:54:07,0.025,0.0,0.01,0.0
27/09/2022,06:55:07,0.025,0.0,0.011,0.001
27/09/2022,06:56:07,0.026,0.0,0.011,0.0
27/09/2022,06:57:07,0.028,0.0,0.012,0.001
27/09/2022,06:58:16,0.028,0.0,0.012,0.0
27/09/2022,06:59:08,0.030,0.0,0.013,0.001
27/09/2022,07:00:07,0.031,0.0,0.013,0.0
27/09/2022,07:01:15,0.030,0.0,0.014,0.001
27/09/2022,07:02:07,0.029,0.0,0.014,0.0
27/09/2022,07:03:07,0.028,0.0,0.015,0.001
27/09/2022,07:04:15,0.026,0.0,0.015,0.0
27/09/2022,07:05:05,0.025,0.0,0.016,0.001
27/09/2022,07:06:07,0.026,0.0,0.016,0.0
27/09/2022,07:07:07,0.026,0.0,0.016,0.0
27/09/2022,07:08:07,0.027,0.0,0.017,0.001
27/09/2022,07:09:07,0.030,0.0,0.017,0.0
27/09/2022,07:10:07,0.034,0.0,0.018,0.001
27/09/2022,07:11:07,0.037,0.0,0.018,0.0
27/09/2022,07:12:08,0.039,0.0,0.019,0.001
27/09/2022,07:13:07,0.042,0.0,0.02,0.001
27/09/2022,07:14:16,0.043,0.0,0.021,0.001
27/09/2022,07:15:07,0.045,0.0,0.021,0.0
27/09/2022,07:16:07,0.048,0.0,0.022,0.001
27/09/2022,07:17:07,0.050,0.0,0.023,0.001
27/09/2022,07:18:08,0.053,0.0,0.024,0.001
27/09/2022,07:19:07,0.055,0.0,0.025,0.001
27/09/2022,07:20:07,0.058,0.0,0.025,0.0
27/09/2022,07:21:07,0.061,0.0,0.026,0.001
27/09/2022,07:22:07,0.063,0.0,0.027,0.001
27/09/2022,07:23:07,0.064,0.0,0.029,0.002
27/09/2022,07:24:15,0.066,0.0,0.03,0.001
27/09/2022,07:25:08,0.068,0.0,0.031,0.001
27/09/2022,07:26:07,0.072,0.0,0.032,0.001
27/09/2022,07:27:08,0.074,0.0,0.033,0.001
27/09/2022,07:28:07,0.076,0.0,0.034,0.001
27/09/2022,07:29:07,0.080,0.0,0.036,0.002
27/09/2022,07:30:07,0.081,0.0,0.037,0.001
27/09/2022,07:31:10,0.083,0.0,0.038,0.001
27/09/2022,07:32:07,0.086,0.0,0.04,0.002
27/09/2022,07:33:07,0.088,0.0,0.041,0.001
27/09/2022,07:34:15,0.091,0.0,0.043,0.002
27/09/2022,07:35:07,0.091,0.0,0.044,0.001
27/09/2022,07:36:07,0.095,0.0,0.046,0.002
27/09/2022,07:37:16,0.100,0.0,0.048,0.002
27/09/2022,07:38:08,0.102,0.0,0.049,0.001
27/09/2022,07:39:07,0.105,0.0,0.051,0.002
27/09/2022,07:40:07,0.107,0.0,0.053,0.002
27/09/2022,07:41:08,0.111,0.0,0.054,0.001
27/09/2022,07:42:07,0.115,0.0,0.056,0.002
27/09/2022,07:43:08,0.115,0.0,0.058,0.002
27/09/2022,07:44:08,0.116,0.0,0.06,0.002
27/09/2022,07:45:07,0.117,0.0,0.062,0.002
27/09/2022,07:46:07,0.124,0.0,0.064,0.002
27/09/2022,07:47:07,0.122,0.0,0.066,0.002
27/09/2022,07:48:07,0.124,0.0,0.068,0.002
27/09/2022,07:49:08,0.126,0.0,0.07,0.002
27/09/2022,07:50:07,0.128,0.0,0.072,0.002
27/09/2022,07:51:07,0.127,0.0,0.075,0.003
27/09/2022,07:52:07,0.126,0.0,0.077,0.002
27/09/2022,07:53:07,0.126,0.0,0.079,0.002
27/09/2022,07:54:08,0.129,0.0,0.081,0.002
27/09/2022,07:55:09,0.133,0.0,0.083,0.002
27/09/2022,07:56:07,0.137,0.0,0.085,0.002
27/09/2022,07:57:16,0.139,0.0,0.088,0.003
27/09/2022,07:58:08,0.141,0.0,0.09,0.002
27/09/2022,07:59:07,0.144,0.0,0.092,0.002
27/09/2022,08:00:07,0.145,0.0,0.095,0.003
27/09/2022,08:01:08,0.150,0.0,0.097,0.002
27/09/2022,08:02:07,0.154,0.0,0.1,0.003
27/09/2022,08:03:07,0.162,0.0,0.102,0.002
27/09/2022,08:04:08,0.169,0.0,0.105,0.003
27/09/2022,08:05:07,0.171,0.0,0.108,0.003
27/09/2022,08:06:08,0.176,0.0,0.111,0.003
27/09/2022,08:07:07,0.174,0.0,0.114,0.003
27/09/2022,08:08:07,0.173,0.0,0.117,0.003
27/09/2022,08:09:07,0.175,0.0,0.12,0.003
27/09/2022,08:10:15,0.176,0.0,0.123,0.003
27/09/2022,08:11:16,0.177,0.0,0.126,0.003
27/09/2022,08:12:08,0.181,0.0,0.128,0.002
27/09/2022,08:13:07,0.183,0.0,0.131,0.003
27/09/2022,08:14:16,0.190,0.0,0.135,0.004
27/09/2022,08:15:07,0.191,0.0,0.138,0.003
27/09/2022,08:16:08,0.192,0.0,0.141,0.003
27/09/2022,08:17:15,0.199,0.0,0.145,0.004
27/09/2022,08:18:07,0.209,0.0,0.148,0.003
27/09/2022,08:19:07,0.215,0.0,0.151,0.003
27/09/2022,08:20:08,0.226,1.0,0.155,0.004
27/09/2022,08:21:07,0.224,1.0,0.158,0.003
27/09/2022,08:22:07,0.229,1.0,0.162,0.004
27/09/2022,08:23:07,0.236,1.0,0.166,0.004
27/09/2022,08:24:15,0.220,1.0,0.171,0.005
27/09/2022,08:25:07,0.219,1.0,0.174,0.003
27/09/2022,08:26:08,0.220,1.0,0.177,0.003
27/09/2022,08:27:16,0.221,1.0,0.182,0.005
27/09/2022,08:28:07,0.221,1.0,0.185,0.003
27/09/2022,08:29:08,0.207,0.0,0.188,0.003
27/09/2022,08:30:07,0.200,0.0,0.192,0.004
27/09/2022,08:31:07,0.199,0.0,0.195,0.003
27/09/2022,08:32:07,0.200,0.0,0.198,0.003
27/09/2022,09:43:00,0.399,1.0,0.545,0.347
27/09/2022,09:47:20,0.453,1.0,0.575,0.03
27/09/2022,09:49:18,0.569,1.0,0.592,0.017
27/09/2022,09:51:19,0.643,1.0,0.612,0.02
27/09/2022,09:53:17,0.549,1.0,0.634,0.022
27/09/2022,09:54:17,0.459,1.0,0.644,0.01
27/09/2022,09:55:14,0.439,1.0,0.651,0.007
27/09/2022,09:56:20,0.372,1.0,0.659,0.008
27/09/2022,09:58:17,0.285,1.0,0.669,0.01
27/09/2022,09:59:15,0.239,1.0,0.674,0.005
27/09/2022,10:00:17,0.251,1.0,0.678,0.004
27/09/2022,10:01:15,0.282,1.0,0.682,0.004
27/09/2022,10:02:17,0.294,1.0,0.687,0.005
27/09/2022,10:03:15,0.313,1.0,0.692,0.005
27/09/2022,10:04:27,0.312,1.0,0.698,0.006
27/09/2022,10:06:17,0.300,1.0,0.707,0.009
27/09/2022,10:07:16,0.344,1.0,0.713,0.006
27/09/2022,10:08:15,0.374,1.0,0.719,0.006
27/09/2022,10:09:17,0.395,1.0,0.725,0.006
27/09/2022,10:11:17,0.468,1.0,0.74,0.015
27/09/2022,10:12:16,0.493,1.0,0.748,0.008
27/09/2022,10:13:17,0.516,1.0,0.756,0.008
27/09/2022,10:14:16,0.402,1.0,0.764,0.008
27/09/2022,10:15:16,0.333,1.0,0.77,0.006
27/09/2022,10:16:15,0.285,1.0,0.775,0.005
27/09/2022,10:17:17,0.271,1.0,0.78,0.005
27/09/2022,10:17:51,0.270,1.0,0.782,0.002
27/09/2022,10:19:17,0.288,1.0,0.789,0.007
27/09/2022,10:20:16,0.295,1.0,0.794,0.005
27/09/2022,10:21:18,0.270,1.0,0.799,0.005
27/09/2022,10:22:16,0.247,1.0,0.803,0.004
27/09/2022,10:23:18,0.215,0.0,0.807,0.004
27/09/2022,10:25:17,0.201,0.0,0.814,0.007
27/09/2022,10:26:15,0.177,0.0,0.817,0.003
27/09/2022,10:27:17,0.184,0.0,0.82,0.003
27/09/2022,10:28:15,0.223,1.0,0.823,0.003
27/09/2022,10:29:18,0.219,1.0,0.827,0.004
27/09/2022,10:31:16,0.218,1.0,0.834,0.007
27/09/2022,10:32:15,0.286,1.0,0.838,0.004
27/09/2022,10:33:16,0.358,1.0,0.843,0.005
27/09/2022,10:34:17,0.399,1.0,0.85,0.007
27/09/2022,10:35:16,0.434,1.0,0.857,0.007
27/09/2022,10:36:26,0.405,1.0,0.865,0.008
27/09/2022,10:38:17,0.334,1.0,0.876,0.011
27/09/2022,10:39:16,0.417,1.0,0.882,0.006
27/09/2022,10:40:28,0.509,1.0,0.892,0.01
27/09/2022,10:42:17,0.552,1.0,0.908,0.016
27/09/2022,10:43:17,0.591,1.0,0.917,0.009
27/09/2022,10:44:15,0.633,1.0,0.927,0.01
27/09/2022,10:45:18,0.660,2.0,0.939,0.012
27/09/2022,10:46:17,0.647,1.0,0.95,0.011
27/09/2022,10:47:26,0.710,2.0,0.962,0.012
27/09/2022,10:49:17,0.777,2.0,0.987,0.025
27/09/2022,10:50:16,0.752,2.0,0.999,0.012
27/09/2022,10:51:17,0.955,2.0,1.015,0.016
27/09/2022,10:52:16,0.885,2.0,1.03,0.015
27/09/2022,10:53:25,0.923,2.0,1.047,0.017
27/09/2022,10:55:18,0.649,1.0,1.073,0.026
27/09/2022,10:56:33,0.555,1.0,1.086,0.013
27/09/2022,10:58:19,0.486,1.0,1.102,0.016
27/09/2022,11:00:17,0.474,1.0,1.117,0.015
27/09/2022,11:01:19,0.475,1.0,1.125,0.008
27/09/2022,11:03:17,0.518,1.0,1.141,0.016
27/09/2022,11:04:16,0.546,1.0,1.15,0.009
27/09/2022,11:05:18,0.580,1.0,1.16,0.01
27/09/2022,11:07:17,0.648,1.0,1.18,0.02
27/09/2022,11:08:17,0.990,2.0,1.195,0.015
27/09/2022,11:09:16,1.014,2.0,1.211,0.016
27/09/2022,11:10:19,1.030,2.0,1.229,0.018
27/09/2022,11:12:17,0.846,2.0,1.263,0.034
27/09/2022,11:13:16,1.061,2.0,1.278,0.015
27/09/2022,11:14:18,1.023,2.0,1.296,0.018
27/09/2022,11:15:16,0.730,2.0,1.311,0.015
27/09/2022,11:16:19,0.594,1.0,1.324,0.013
27/09/2022,11:18:17,0.539,1.0,1.343,0.019
27/09/2022,11:19:15,0.514,1.0,1.351,0.008
27/09/2022,11:20:18,0.438,1.0,1.36,0.009
27/09/2022,11:21:16,0.361,1.0,1.367,0.007
27/09/2022,11:22:18,0.349,1.0,1.373,0.006
27/09/2022,11:24:17,0.287,1.0,1.383,0.01
27/09/2022,11:25:16,0.249,1.0,1.388,0.005
27/09/2022,11:26:26,0.201,0.0,1.392,0.004
27/09/2022,11:28:17,0.134,0.0,1.397,0.005
27/09/2022,11:29:17,0.130,0.0,1.399,0.002
27/09/2022,11:30:15,0.128,0.0,1.401,0.002
27/09/2022,11:31:17,0.125,0.0,1.404,0.003
27/09/2022,11:32:15,0.127,0.0,1.406,0.002
27/09/2022,11:33:18,0.132,0.0,1.408,0.002
27/09/2022,11:35:17,0.171,0.0,1.413,0.005
27/09/2022,11:36:16,0.201,0.0,1.416,0.003
27/09/2022,11:37:17,0.227,1.0,1.419,0.003
27/09/2022,11:38:16,0.227,1.0,1.423,0.004
27/09/2022,11:39:18,0.250,1.0,1.427,0.004
27/09/2022,11:40:15,0.315,1.0,1.432,0.005
27/09/2022,11:41:18,0.401,1.0,1.438,0.006
27/09/2022,11:42:16,0.446,1.0,1.445,0.007
27/09/2022,11:43:19,0.489,1.0,1.453,0.008
27/09/2022,11:45:17,0.639,1.0,1.471,0.018
27/09/2022,11:46:15,0.597,1.0,1.48,0.009